GW2748 Weather Reports


time (UTC)temp
C
wind
direction
speed
KPH
gust
KPH
rain 1hr
cm
rain 24hr
cm
rain mn
cm
humidity
%
barometer
mb
20260507154540 2 322 4.8 4.8 0.00 0.00 0.00 86 1011.5
20260507154037 2 285 0.0 0.0 0.00 0.00 0.00 89 1011.5
20260507153533 2 264 0.0 0.0 0.00 0.00 0.00 89 1011.8
20260507153024 2 241 1.6 1.6 0.00 0.00 0.00 90 1011.7
20260507152520 2 277 0.0 0.0 0.00 0.00 0.00 91 1011.6
20260507152017 1 263 0.0 0.0 0.00 0.00 0.00 91 1011.6
20260507151513 1 245 0.0 1.6 0.00 0.00 0.00 91 1011.8
20260507151010 1 241 1.6 1.6 0.00 0.00 0.00 92 1011.7
20260507150507 1 248 1.6 3.2 0.00 0.00 0.00 91 1011.8
20260507150005 1 196 3.2 3.2 0.00 0.00 0.00 91 1011.6
20260507145459 1 218 3.2 3.2 0.00 0.00 0.00 90 1011.8
20260507144956 2 331 0.0 0.0 0.00 0.00 0.00 88 1011.7
20260507144453 2 288 0.0 0.0 0.00 0.00 0.00 88 1011.6
20260507143950 1 305 0.0 1.6 0.00 0.00 0.00 91 1011.6
20260507143448 1 292 1.6 1.6 0.00 0.00 0.00 94 1011.7
20260507142944 1 204 1.6 1.6 0.00 0.00 0.00 94 1011.6
20260507142440 1 231 0.0 0.0 0.00 0.00 0.00 94 1011.7
20260507141937 1 250 0.0 1.6 0.00 0.00 0.00 94 1011.6
20260507141433 1 284 0.0 0.0 0.00 0.00 0.00 94 1011.6
20260507140930 1 265 1.6 1.6 0.00 0.00 0.00 94 1011.6
20260507140427 1 236 1.6 1.6 0.00 0.00 0.00 94 1011.7
20260507135925 1 281 0.0 0.0 0.00 0.00 0.00 95 1011.6
20260507135421 1 281 0.0 0.0 0.00 0.00 0.00 94 1011.7
20260507134918 1 286 0.0 0.0 0.00 0.00 0.00 94 1011.7
20260507134415 1 302 0.0 1.6 0.00 0.00 0.00 95 1011.7
20260507133910 1 259 1.6 1.6 0.00 0.00 0.00 94 1011.8
20260507133406 1 238 1.6 1.6 0.00 0.00 0.00 94 1011.9
20260507132900 1 284 0.0 0.0 0.00 0.00 0.00 93 1011.7
20260507132355 1 245 1.6 1.6 0.00 0.00 0.00 93 1011.8
20260507131852 1 279 0.0 0.0 0.00 0.00 0.00 93 1011.8
20260507131349 1 282 0.0 0.0 0.00 0.00 0.00 93 1011.7
20260507130846 1 254 0.0 1.6 0.00 0.00 0.00 92 1011.6
20260507130343 1 310 1.6 1.6 0.00 0.00 0.00 92 1011.5
20260507125842 1 278 0.0 0.0 0.00 0.00 0.00 93 1011.6
20260507125339 1 252 0.0 0.0 0.00 0.00 0.00 93 1011.6
20260507124837 1 281 0.0 0.0 0.00 0.00 0.00 93 1011.5
20260507124332 1 283 0.0 0.0 0.00 0.00 0.00 92 1011.7
20260507123831 2 274 0.0 0.0 0.00 0.00 0.00 92 1011.9
20260507123328 2 314 1.6 1.6 0.00 0.00 0.00 92 1011.7
20260507122824 1 273 4.8 4.8 0.00 0.00 0.00 92 1011.7
20260507122319 1 307 0.0 0.0 0.00 0.00 0.00 92 1011.5
20260507121816 2 308 1.6 1.6 0.00 0.00 0.00 92 1011.6
20260507121312 1 42 6.4 8.0 0.00 0.00 0.00 92 1011.7
20260507120808 1 276 0.0 0.0 0.00 0.00 0.00 91 1011.7
20260507120305 1 296 0.0 1.6 0.00 0.00 0.00 90 1011.7
20260507115801 2 281 0.0 0.0 0.00 0.00 0.00 89 1011.7
20260507115257 2 329 4.8 4.8 0.00 0.00 0.00 90 1011.8
20260507114753 2 8 1.6 4.8 0.00 0.00 0.00 90 1011.7
20260507114250 2 308 3.2 4.8 0.00 0.00 0.00 91 1011.8
20260507113748 2 31 6.4 9.7 0.00 0.00 0.00 90 1011.8
20260507113244 2 21 3.2 4.8 0.00 0.00 0.00 91 1011.6
20260507112742 2 349 6.4 8.0 0.00 0.00 0.00 92 1011.6
20260507112239 1 314 4.8 4.8 0.00 0.00 0.00 93 1011.7
20260507111737 1 316 6.4 9.7 0.00 0.00 0.00 93 1011.6
20260507111233 1 47 3.2 8.0 0.00 0.00 0.00 93 1011.5
20260507110729 1 279 0.0 0.0 0.00 0.00 0.00 93 1011.6
20260507110226 1 290 0.0 1.6 0.00 0.00 0.00 94 1011.5
20260507105722 1 261 0.0 0.0 0.00 0.00 0.00 94 1011.7
20260507105218 1 284 0.0 0.0 0.00 0.00 0.00 94 1011.7
20260507104716 1 278 0.0 0.0 0.00 0.00 0.00 94 1011.7
20260507104212 1 275 0.0 0.0 0.00 0.00 0.00 94 1011.6
20260507103708 1 255 0.0 0.0 0.00 0.00 0.00 94 1011.4
20260507103205 1 11 4.8 4.8 0.00 0.00 0.00 94 1011.4
20260507102701 1 269 0.0 1.6 0.00 0.00 0.00 93 1011.6
20260507102158 1 268 0.0 0.0 0.00 0.00 0.00 92 1011.6
20260507101654 1 315 1.6 1.6 0.00 0.00 0.00 92 1011.6
20260507101149 1 288 0.0 0.0 0.00 0.00 0.00 91 1011.7
20260507100647 1 299 1.6 1.6 0.00 0.00 0.00 91 1011.7
20260507100145 1 289 0.0 1.6 0.00 0.00 0.00 91 1011.5
20260507095643 1 346 3.2 3.2 0.00 0.00 0.00 93 1011.4
20260507095139 1 332 3.2 3.2 0.00 0.00 0.00 94 1011.5
20260507094636 1 354 4.8 8.0 0.00 0.00 0.00 94 1011.6
20260507094133 1 327 3.2 4.8 0.00 0.00 0.00 94 1011.6
20260507093630 1 297 1.6 1.6 0.00 0.00 0.00 93 1011.5
20260507093129 2 3 4.8 8.0 0.00 0.00 0.00 93 1011.2
20260507092625 2 28 3.2 4.8 0.00 0.00 0.00 92 1011.4
20260507092121 2 339 1.6 3.2 0.00 0.00 0.00 92 1011.5
20260507091618 2 194 3.2 4.8 0.00 0.00 0.00 93 1011.1
20260507091114 1 96 4.8 8.0 0.00 0.00 0.00 94 1011.1
20260507090610 1 17 8.0 11.3 0.00 0.00 0.00 95 1011.1
20260507090107 1 285 0.0 1.6 0.00 0.00 0.00 95 1011.4
20260507085604 1 154 4.8 4.8 0.00 0.00 0.00 95 1011.4
20260507085101 1 255 3.2 3.2 0.00 0.00 0.00 95 1011.1
20260507084558 2 321 1.6 1.6 0.00 0.00 0.00 94 1011.0
20260507084055 2 347 1.6 3.2 0.00 0.00 0.00 94 1011.0
20260507083551 2 218 1.6 3.2 0.00 0.00 0.00 95 1011.0
20260507083048 1 333 6.4 9.7 0.00 0.00 0.00 95 1011.0
20260507082544 2 312 1.6 1.6 0.00 0.00 0.00 95 1010.9
20260507082035 2 330 3.2 3.2 0.00 0.00 0.00 96 1010.8
20260507081531 1 305 3.2 3.2 0.00 0.00 0.00 96 1010.7
20260507081029 2 301 3.2 3.2 0.00 0.00 0.00 96 1010.7
20260507080524 1 316 1.6 1.6 0.00 0.00 0.00 96 1010.5
20260507080021 2 285 0.0 0.0 0.00 0.23 0.23 96 1010.6
20260507075516 2 288 0.0 0.0 0.00 0.23 0.23 96 1010.6
20260507075013 2 298 0.0 1.6 0.00 0.23 0.23 95 1010.7
20260507074509 2 302 4.8 4.8 0.00 0.23 0.23 95 1010.6
20260507074008 2 305 0.0 1.6 0.00 0.23 0.23 95 1010.8
20260507073504 2 304 1.6 1.6 0.00 0.23 0.23 95 1010.6
20260507073000 2 108 3.2 3.2 0.00 0.23 0.23 95 1010.6
20260507072458 2 275 0.0 0.0 0.00 0.23 0.23 95 1010.6
20260507071955 2 278 0.0 0.0 0.00 0.23 0.23 94 1010.5
20260507071452 2 303 1.6 1.6 0.00 0.23 0.23 94 1010.5
20260507070949 2 254 0.0 1.6 0.00 0.23 0.23 94 1010.3
20260507070446 2 277 0.0 0.0 0.00 0.23 0.23 94 1010.3
20260507065943 2 285 0.0 0.0 0.00 0.23 0.23 94 1010.3
20260507065439 2 277 0.0 0.0 0.00 0.23 0.23 94 1010.3
20260507064936 2 320 1.6 1.6 0.13 0.23 0.23 95 1010.2
20260507064435 2 277 0.0 0.0 0.13 0.23 0.23 95 1010.3
20260507063932 2 280 0.0 0.0 0.13 0.23 0.23 95 1010.3
20260507063429 2 287 0.0 0.0 0.00 0.20 0.20 95 1010.2
20260507062926 2 246 0.0 1.6 0.00 0.20 0.20 94 1010.0
20260507062423 2 313 1.6 1.6 0.00 0.20 0.20 95 1010.1
20260507061921 2 344 1.6 3.2 0.18 0.20 0.20 95 1010.1
20260507061418 2 307 0.0 1.6 0.18 0.20 0.20 95 1010.4
20260507060917 2 297 1.6 1.6 0.00 0.18 0.18 93 1009.9
20260507060413 2 310 0.0 0.0 0.00 0.18 0.18 93 1010.0
20260507055910 2 294 0.0 0.0 0.00 0.18 0.18 93 1010.0
20260507055405 2 308 3.2 3.2 0.00 0.18 0.18 93 1009.8
20260507054902 2 283 0.0 0.0 0.00 0.18 0.18 93 1009.7
20260507054358 2 289 0.0 0.0 0.00 0.18 0.18 92 1009.9
20260507053855 2 281 0.0 0.0 0.00 0.18 0.18 91 1009.9
20260507053353 2 262 0.0 0.0 0.13 0.18 0.18 92 1009.8
20260507052852 2 282 1.6 1.6 0.13 0.18 0.18 94 1009.8
20260507052348 2 300 0.0 1.6 0.00 0.15 0.15 95 1009.7
20260507051845 2 316 3.2 3.2 0.00 0.15 0.15 94 1009.7
20260507051343 3 226 1.6 3.2 0.00 0.15 0.15 92 1009.5
20260507050834 3 216 3.2 3.2 0.18 0.15 0.15 91 1009.7
20260507050330 3 249 0.0 0.0 0.18 0.15 0.15 91 1009.5
20260507045827 2 283 0.0 0.0 0.18 0.15 0.15 91 1009.7
20260507045324 2 284 0.0 0.0 0.00 0.13 0.13 91 1009.7
20260507044821 2 283 0.0 1.6 0.00 0.13 0.13 91 1009.7
20260507044318 2 288 0.0 1.6 0.18 0.13 0.13 94 1010.0
20260507043814 2 292 0.0 0.0 0.18 0.13 0.13 94 1009.7
20260507043310 2 282 0.0 0.0 0.13 0.10 0.10 94 1009.6
20260507042807 2 307 4.8 4.8 0.30 0.10 0.10 94 1009.8
20260507042306 2 324 4.8 4.8 0.18 0.08 0.08 94 1009.7
20260507041800 2 343 4.8 4.8 0.13 0.05 0.05 94 1009.8
20260507041256 2 352 4.8 4.8 0.13 0.05 0.05 93 1009.6
20260507040753 2 42 4.8 9.7 0.18 0.03 0.03 93 1009.7
20260507040249 2 11 4.8 9.7 0.18 0.03 0.03 92 1009.6
20260507035745 3 32 4.8 4.8 0.00 0.00 0.00 90 1009.5
20260507035241 3 49 8.0 11.3 0.00 0.00 0.00 87 1009.5
20260507034739 4 328 3.2 4.8 0.00 0.00 0.00 84 1009.3
20260507034235 5 161 8.0 9.7 0.00 0.00 0.00 85 1009.1
20260507033734 5 223 3.2 3.2 0.00 0.00 0.00 83 1009.0
20260507033231 5 304 1.6 3.2 0.00 0.00 0.00 78 1008.9
20260507032728 5 319 1.6 3.2 0.00 0.00 0.00 78 1008.7
20260507032224 5 336 4.8 8.0 0.00 0.00 0.00 77 1009.0
20260507031721 5 292 0.0 0.0 0.00 0.00 0.00 79 1008.9
20260507031217 5 302 0.0 0.0 0.00 0.00 0.00 81 1008.8
20260507030714 5 178 3.2 4.8 0.00 0.00 0.00 83 1008.7
20260507030212 5 252 1.6 1.6 0.00 0.00 0.00 83 1008.6
20260507025709 5 269 0.0 0.0 0.00 0.00 0.00 82 1008.9
20260507025206 5 186 3.2 3.2 0.00 0.00 0.00 82 1008.7
20260507024704 5 199 3.2 3.2 0.00 0.00 0.00 81 1008.7
20260507024201 5 248 1.6 1.6 0.00 0.00 0.00 76 1008.6
20260507023656 5 262 0.0 0.0 0.00 0.00 0.00 78 1008.7
20260507023154 5 176 3.2 3.2 0.00 0.00 0.00 79 1008.8
20260507022651 5 287 0.0 0.0 0.00 0.00 0.00 81 1008.6
20260507022146 5 216 1.6 3.2 0.00 0.00 0.00 79 1008.6
20260507021643 6 238 1.6 1.6 0.00 0.00 0.00 78 1008.4
20260507021138 6 287 3.2 3.2 0.00 0.00 0.00 77 1008.5
20260507020637 6 286 1.6 1.6 0.00 0.00 0.00 76 1008.4
20260507020132 6 250 1.6 1.6 0.00 0.00 0.00 76 1008.5
20260507015631 6 219 1.6 1.6 0.00 0.00 0.00 78 1008.4
20260507015128 6 353 1.6 3.2 0.00 0.00 0.00 76 1008.3
20260507014625 6 332 1.6 3.2 0.00 0.00 0.00 74 1008.1
20260507014121 6 306 1.6 1.6 0.00 0.00 0.00 76 1008.3
20260507013618 6 283 0.0 0.0 0.00 0.00 0.00 79 1008.1
20260507013115 5 323 1.6 3.2 0.00 0.00 0.00 79 1008.4
20260507012612 5 277 0.0 0.0 0.00 0.00 0.00 81 1008.4
20260507012107 5 291 1.6 3.2 0.00 0.00 0.00 83 1008.3
20260507011606 5 304 1.6 1.6 0.00 0.00 0.00 82 1008.3
20260507011102 5 278 0.0 0.0 0.00 0.00 0.00 81 1008.3
20260507010556 5 277 1.6 1.6 0.00 0.00 0.00 81 1008.3
20260507010052 5 291 1.6 1.6 0.00 0.00 0.00 81 1008.5
20260507005550 5 287 0.0 0.0 0.00 0.00 0.00 83 1008.4
20260507005046 5 41 3.2 3.2 0.00 0.00 0.00 83 1008.4
20260507004543 5 222 3.2 3.2 0.00 0.00 0.00 83 1008.0
20260507004041 5 216 4.8 4.8 0.00 0.00 0.00 83 1008.1
20260507003536 5 193 1.6 3.2 0.00 0.00 0.00 82 1008.1
20260507003032 5 186 1.6 3.2 0.00 0.00 0.00 84 1008.4
20260507002528 5 250 3.2 3.2 0.00 0.00 0.00 83 1008.1
20260507002019 5 330 1.6 1.6 0.00 0.00 0.00 83 1008.0
20260507001515 5 299 0.0 1.6 0.00 0.00 0.00 84 1008.1
20260507001013 5 139 6.4 8.0 0.00 0.00 0.00 84 1008.1
20260507000509 5 190 3.2 3.2 0.00 0.00 0.00 85 1008.3
20260507000005 5 143 4.8 8.0 0.00 0.00 0.00 84 1007.9
20260506235502 5 162 4.8 4.8 0.00 0.00 0.00 83 1007.9
20260506234958 5 164 9.7 11.3 0.00 0.00 0.00 82 1007.8
20260506234455 5 88 4.8 8.0 0.00 0.00 0.00 79 1007.8
20260506233953 5 21 3.2 3.2 0.00 0.00 0.00 80 1007.6
20260506233449 6 33 3.2 3.2 0.00 0.00 0.00 78 1007.7
20260506232945 5 95 4.8 4.8 0.00 0.00 0.00 79 1007.7
20260506232442 5 322 4.8 4.8 0.00 0.00 0.00 77 1007.8
20260506231938 5 25 4.8 4.8 0.00 0.00 0.00 76 1007.8
20260506231436 6 147 4.8 4.8 0.00 0.00 0.00 73 1007.8
20260506230933 5 174 6.4 8.0 0.00 0.00 0.00 74 1007.7
20260506230429 5 274 4.8 8.0 0.00 0.00 0.00 75 1007.7
20260506225925 5 184 6.4 9.7 0.00 0.00 0.00 75 1007.5
20260506225423 6 134 6.4 8.0 0.00 0.00 0.00 72 1007.7
20260506224920 6 97 4.8 8.0 0.00 0.00 0.00 73 1007.6
20260506224417 5 156 4.8 4.8 0.00 0.00 0.00 72 1007.6
20260506223913 6 155 6.4 8.0 0.00 0.00 0.00 73 1007.4
20260506223409 6 232 1.6 3.2 0.00 0.00 0.00 74 1007.6
20260506222906 5 181 4.8 4.8 0.00 0.00 0.00 74 1007.3
20260506222402 5 192 1.6 1.6 0.00 0.00 0.00 75 1007.4
20260506221900 5 264 1.6 1.6 0.00 0.00 0.00 75 1007.4
20260506221356 6 140 3.2 4.8 0.00 0.00 0.00 73 1007.4
20260506220854 7 293 4.8 4.8 0.00 0.00 0.00 68 1007.2
20260506220350 7 210 4.8 8.0 0.00 0.00 0.00 61 1007.4
20260506215846 7 356 6.4 9.7 0.00 0.00 0.00 63 1007.0
20260506215342 6 328 3.2 3.2 0.00 0.00 0.00 70 1007.2
20260506214838 6 325 1.6 1.6 0.00 0.00 0.00 75 1007.4
20260506214335 6 167 8.0 9.7 0.00 0.00 0.00 74 1007.0
20260506213834 6 257 1.6 1.6 0.00 0.00 0.00 73 1007.0
20260506213330 6 179 4.8 8.0 0.00 0.00 0.00 73 1007.1
20260506212828 6 190 3.2 3.2 0.00 0.00 0.00 74 1007.0
20260506212323 6 128 4.8 4.8 0.00 0.00 0.00 73 1007.1
20260506211819 7 171 4.8 4.8 0.00 0.00 0.00 73 1007.0
20260506211315 6 194 8.0 9.7 0.00 0.00 0.00 72 1007.0
20260506210813 6 175 4.8 8.0 0.00 0.00 0.00 72 1006.8
20260506210309 6 33 4.8 4.8 0.00 0.00 0.00 75 1006.8
20260506205806 6 115 4.8 4.8 0.00 0.00 0.00 76 1007.0
20260506205305 6 146 4.8 8.0 0.00 0.00 0.00 75 1006.6
20260506204758 6 150 9.7 11.3 0.00 0.00 0.00 74 1006.7
20260506204257 6 242 1.6 1.6 0.00 0.00 0.00 73 1006.7
20260506203754 6 259 1.6 1.6 0.00 0.00 0.00 73 1006.5
20260506203251 6 160 6.4 9.7 0.00 0.00 0.00 73 1006.7
20260506202748 6 77 3.2 4.8 0.00 0.00 0.00 74 1006.5
20260506202245 6 239 3.2 4.8 0.00 0.00 0.00 75 1006.6
20260506201741 6 52 4.8 4.8 0.00 0.00 0.00 75 1006.4
20260506201238 6 36 4.8 4.8 0.00 0.00 0.00 72 1006.3
20260506200735 6 268 4.8 4.8 0.00 0.00 0.00 76 1006.4
20260506200232 6 178 4.8 8.0 0.00 0.00 0.00 78 1006.4
20260506195728 6 269 4.8 8.0 0.00 0.00 0.00 77 1006.4
20260506195225 6 242 3.2 3.2 0.00 0.00 0.00 77 1006.4
20260506194722 6 187 8.0 9.7 0.00 0.00 0.00 76 1006.5
20260506194218 5 202 3.2 4.8 0.00 0.00 0.00 78 1006.4
20260506193716 6 84 3.2 3.2 0.00 0.00 0.00 77 1006.3
20260506193213 6 199 3.2 4.8 0.00 0.00 0.00 77 1006.1
20260506192709 6 268 1.6 1.6 0.00 0.00 0.00 73 1006.2
20260506192206 6 277 1.6 1.6 0.00 0.00 0.00 75 1006.4
20260506191657 5 218 3.2 3.2 0.00 0.00 0.00 77 1006.2
20260506191153 5 224 4.8 4.8 0.00 0.00 0.00 77 1006.4
20260506190651 5 164 3.2 3.2 0.00 0.00 0.00 78 1006.4
20260506190147 5 176 3.2 4.8 0.00 0.00 0.00 78 1006.5
20260506185644 5 176 9.7 11.3 0.00 0.00 0.00 78 1006.0
20260506185140 5 192 4.8 4.8 0.00 0.00 0.00 79 1006.2
20260506184638 5 124 3.2 3.2 0.00 0.00 0.00 80 1006.1
20260506184135 5 207 3.2 3.2 0.00 0.00 0.00 79 1006.2
20260506183632 4 213 3.2 3.2 0.00 0.00 0.00 80 1005.9
20260506183128 4 63 4.8 4.8 0.00 0.00 0.00 79 1006.1
20260506182625 4 214 3.2 3.2 0.00 0.00 0.00 80 1006.3
20260506182122 4 214 1.6 3.2 0.00 0.00 0.00 81 1006.1
20260506181620 4 235 1.6 1.6 0.00 0.00 0.00 81 1006.1
20260506181117 4 240 3.2 3.2 0.00 0.00 0.00 81 1006.0
20260506180614 3 218 1.6 3.2 0.00 0.00 0.00 81 1005.9
20260506180110 3 190 3.2 3.2 0.00 0.00 0.00 81 1005.9
20260506175607 3 264 0.0 0.0 0.00 0.00 0.00 81 1005.9
20260506175103 3 210 3.2 4.8 0.00 0.00 0.00 82 1005.9
20260506174602 3 263 1.6 1.6 0.00 0.00 0.00 81 1005.8
20260506174057 3 277 0.0 0.0 0.00 0.00 0.00 81 1005.8
20260506173555 3 230 1.6 1.6 0.00 0.00 0.00 81 1006.1
20260506173052 3 268 0.0 0.0 0.00 0.00 0.00 82 1005.9
20260506172549 3 186 4.8 4.8 0.00 0.00 0.00 81 1005.8
20260506172045 3 240 1.6 1.6 0.00 0.00 0.00 80 1005.8
20260506171543 3 254 0.0 1.6 0.00 0.00 0.00 81 1005.7
20260506171040 3 195 3.2 3.2 0.00 0.00 0.00 81 1005.6
20260506170537 3 48 3.2 3.2 0.00 0.00 0.00 81 1005.8
20260506170030 3 277 0.0 1.6 0.00 0.00 0.00 81 1005.6
20260506165528 3 292 0.0 0.0 0.00 0.00 0.00 81 1005.6
20260506165024 3 259 1.6 1.6 0.00 0.00 0.00 81 1005.8
20260506164520 3 284 0.0 0.0 0.00 0.00 0.00 81 1005.5
20260506164018 3 289 0.0 0.0 0.00 0.00 0.00 81 1005.5
20260506163514 3 304 1.6 1.6 0.00 0.00 0.00 82 1005.3
20260506163010 3 303 0.0 1.6 0.00 0.00 0.00 82 1005.4
20260506162506 3 331 3.2 3.2 0.00 0.00 0.00 82 1005.5
20260506162003 2 302 0.0 1.6 0.00 0.00 0.00 83 1005.3
20260506161500 2 285 0.0 0.0 0.00 0.00 0.00 84 1005.3
20260506160952 2 289 0.0 0.0 0.00 0.00 0.00 83 1005.2
20260506160450 2 307 1.6 1.6 0.00 0.00 0.00 83 1005.2
20260506155947 2 298 0.0 1.6 0.00 0.00 0.00 83 1005.2
20260506155444 2 302 0.0 0.0 0.00 0.00 0.00 83 1005.0